| time (UTC) | temp F | wind direction | speed MPH | gust MPH | rain 1hr in | rain 24hr in | rain mn in | humidity % | barometer mb |
| 20260510051928 | 46 | 183 | 0.0 | 2.0 | 0.04 | 1.81 | 0.03 | 94 | 1012.4 |
| 20260510050916 | 46 | 184 | 0.0 | 0.0 | 0.04 | 1.81 | 0.03 | 94 | 1012.4 |
| 20260510045923 | 46 | 184 | 0.0 | 4.0 | 0.00 | 1.77 | 0.02 | 94 | 1012.4 |
| 20260510044911 | 46 | 185 | 0.0 | 0.0 | 0.04 | 1.77 | 0.02 | 94 | 1012.4 |
| 20260510043922 | 46 | 185 | 0.0 | 4.0 | 0.08 | 1.77 | 0.02 | 94 | 1012.4 |
| 20260510042925 | 46 | 185 | 0.0 | 5.0 | 0.08 | 1.77 | 0.02 | 94 | 1012.4 |
| 20260510041919 | 46 | 186 | 1.0 | 6.0 | 0.08 | 1.77 | 0.02 | 93 | 1012.4 |
| 20260510040910 | 46 | 216 | 0.0 | 0.0 | 0.08 | 1.77 | 0.02 | 94 | 1012.5 |
| 20260510035913 | 46 | 216 | 0.0 | 5.0 | 0.08 | 1.77 | 0.02 | 94 | 1012.6 |
| 20260510034923 | 46 | 220 | 0.0 | 5.0 | 0.04 | 1.73 | 0.02 | 94 | 1012.6 |
| 20260510033917 | 46 | 172 | 2.0 | 8.0 | 0.00 | 1.69 | 0.01 | 94 | 1012.6 |
| 20260510032920 | 46 | 172 | 0.0 | 8.0 | 0.00 | 1.69 | 0.01 | 93 | 1012.6 |
| 20260510031928 | 46 | 176 | 1.0 | 6.0 | 0.00 | 1.69 | 0.01 | 93 | 1012.7 |
| 20260510030922 | 46 | 177 | 0.0 | 0.0 | 0.00 | 1.69 | 0.01 | 93 | 1012.8 |
| 20260510025926 | 47 | 177 | 0.0 | 0.0 | 0.00 | 1.69 | 0.01 | 93 | 1012.8 |
| 20260510024915 | 47 | 177 | 0.0 | 6.0 | 0.00 | 1.69 | 0.01 | 93 | 1012.9 |
| 20260510023927 | 47 | 178 | 0.0 | 0.0 | 0.00 | 1.69 | 0.01 | 93 | 1012.9 |
| 20260510022914 | 47 | 178 | 0.0 | 2.0 | 0.00 | 1.69 | 0.01 | 93 | 1013.0 |
| 20260510021922 | 47 | 178 | 0.0 | 3.0 | 0.00 | 1.69 | 0.01 | 93 | 1013.0 |
| 20260510020913 | 47 | 179 | 0.0 | 7.0 | 0.00 | 1.69 | 0.01 | 93 | 1012.8 |
| 20260510015916 | 47 | 182 | 0.0 | 0.0 | 0.04 | 1.69 | 0.01 | 93 | 1013.0 |
| 20260510014925 | 47 | 182 | 0.0 | 0.0 | 0.04 | 1.69 | 0.01 | 93 | 1013.0 |
| 20260510013921 | 47 | 182 | 0.0 | 4.0 | 0.04 | 1.69 | 0.01 | 93 | 1012.9 |
| 20260510012925 | 47 | 182 | 0.0 | 0.0 | 0.04 | 1.69 | 0.01 | 93 | 1012.9 |
| 20260510011915 | 47 | 182 | 0.0 | 0.0 | 0.04 | 1.69 | 0.01 | 93 | 1013.0 |
| 20260510010929 | 47 | 182 | 0.0 | 0.0 | 0.04 | 1.69 | 0.01 | 93 | 1013.1 |
| 20260510005911 | 47 | 182 | 0.0 | 5.0 | 0.00 | 1.65 | 0.00 | 93 | 1013.2 |
| 20260510004921 | 47 | 167 | 0.0 | 6.0 | 0.00 | 1.65 | 0.00 | 93 | 1013.1 |
| 20260510003912 | 47 | 267 | 0.0 | 0.0 | 0.00 | 1.65 | 0.00 | 93 | 1013.3 |
| 20260510002920 | 47 | 267 | 0.0 | 0.0 | 0.00 | 1.65 | 0.00 | 93 | 1013.3 |
| 20260510001929 | 46 | 267 | 0.0 | 0.0 | 0.00 | 1.65 | 0.00 | 92 | 1013.3 |
| 20260510000917 | 46 | 267 | 0.0 | 4.0 | 0.00 | 1.65 | 0.00 | 92 | 1013.3 |
| 20260509235921 | 46 | 268 | 0.0 | 0.0 | 0.00 | 1.65 | 0.33 | 92 | 1013.3 |
| 20260509234913 | 46 | 268 | 0.0 | 0.0 | 0.00 | 1.65 | 0.33 | 92 | 1013.4 |
| 20260509233924 | 46 | 268 | 0.0 | 0.0 | 0.00 | 1.65 | 0.33 | 92 | 1013.4 |
| 20260509232926 | 46 | 268 | 0.0 | 0.0 | 0.00 | 1.65 | 0.33 | 92 | 1013.2 |
| 20260509231915 | 46 | 268 | 0.0 | 0.0 | 0.00 | 1.65 | 0.33 | 92 | 1013.3 |
| 20260509230911 | 46 | 268 | 0.0 | 0.0 | 0.00 | 1.65 | 0.33 | 92 | 1013.3 |
| 20260509225914 | 46 | 268 | 0.0 | 0.0 | 0.00 | 1.65 | 0.33 | 92 | 1013.3 |
| 20260509224924 | 46 | 268 | 0.0 | 0.0 | 0.00 | 1.65 | 0.33 | 92 | 1013.3 |
| 20260509223917 | 46 | 268 | 0.0 | 0.0 | 0.00 | 1.65 | 0.33 | 91 | 1013.0 |
| 20260509222922 | 46 | 268 | 0.0 | 0.0 | 0.08 | 1.65 | 0.33 | 92 | 1013.0 |
| 20260509221911 | 46 | 268 | 0.0 | 0.0 | 0.16 | 1.65 | 0.33 | 92 | 1013.1 |
| 20260509220918 | 46 | 268 | 0.0 | 0.0 | 0.35 | 1.65 | 0.33 | 92 | 1013.1 |
| 20260509215927 | 46 | 268 | 0.0 | 3.0 | 0.59 | 1.65 | 0.33 | 92 | 1012.8 |
| 20260509213927 | 46 | 267 | 3.0 | 8.0 | 0.63 | 1.65 | 0.33 | 92 | 1012.4 |
| 20260509212911 | 46 | 273 | 6.0 | 15.0 | 0.55 | 1.57 | 0.31 | 92 | 1012.5 |
| 20260509211925 | 47 | 248 | 9.0 | 20.0 | 0.43 | 1.46 | 0.29 | 92 | 1012.4 |
| 20260509210915 | 50 | 252 | 5.0 | 15.0 | 0.28 | 1.30 | 0.26 | 93 | 1012.2 |
| 20260509205919 | 51 | 156 | 0.0 | 0.0 | 0.04 | 1.06 | 0.21 | 93 | 1011.9 |
| 20260509204928 | 51 | 156 | 0.0 | 0.0 | 0.20 | 1.02 | 0.20 | 93 | 1011.9 |
| 20260509203920 | 51 | 156 | 0.0 | 0.0 | 0.20 | 1.02 | 0.20 | 93 | 1012.0 |
| 20260509202925 | 51 | 156 | 0.0 | 4.0 | 0.20 | 1.02 | 0.20 | 93 | 1011.9 |
| 20260509201914 | 51 | 186 | 2.0 | 7.0 | 0.20 | 1.02 | 0.20 | 93 | 1011.6 |
| 20260509200924 | 50 | 77 | 1.0 | 5.0 | 0.20 | 1.02 | 0.20 | 93 | 1010.8 |
| 20260509195928 | 50 | 157 | 0.0 | 3.0 | 0.20 | 1.02 | 0.20 | 93 | 1011.0 |
| 20260509194918 | 50 | 156 | 0.0 | 0.0 | 0.00 | 0.83 | 0.17 | 93 | 1011.0 |
| 20260509193928 | 50 | 141 | 0.0 | 0.0 | 0.00 | 0.83 | 0.17 | 92 | 1010.9 |
| 20260509192912 | 50 | 136 | 0.0 | 1.0 | 0.00 | 0.83 | 0.17 | 92 | 1010.5 |
| 20260509191922 | 51 | 169 | 0.0 | 0.0 | 0.00 | 0.83 | 0.17 | 92 | 1010.5 |
| 20260509190913 | 51 | 173 | 0.0 | 6.0 | 0.00 | 0.83 | 0.17 | 92 | 1010.5 |
| 20260509185913 | 50 | 177 | 0.0 | 0.0 | 0.00 | 0.83 | 0.17 | 92 | 1010.4 |
| 20260509184925 | 50 | 177 | 0.0 | 0.0 | 0.00 | 0.83 | 0.17 | 91 | 1010.6 |
| 20260509183916 | 50 | 177 | 0.0 | 0.0 | 0.04 | 0.83 | 0.17 | 91 | 1010.9 |
| 20260509182921 | 50 | 177 | 0.0 | 0.0 | 0.12 | 0.83 | 0.17 | 91 | 1010.8 |
| 20260509181930 | 50 | 177 | 0.0 | 0.0 | 0.24 | 0.83 | 0.17 | 90 | 1010.9 |
| 20260509180924 | 50 | 177 | 0.0 | 0.0 | 0.43 | 0.83 | 0.17 | 89 | 1010.7 |
| 20260509175928 | 51 | 177 | 0.0 | 5.0 | 0.43 | 0.83 | 0.17 | 89 | 1010.7 |
| 20260509174918 | 52 | 157 | 0.0 | 8.0 | 0.43 | 0.83 | 0.17 | 89 | 1010.6 |
| 20260509173930 | 53 | 169 | 0.0 | 0.0 | 0.39 | 0.79 | 0.16 | 89 | 1010.6 |
| 20260509172917 | 53 | 169 | 0.0 | 0.0 | 0.31 | 0.71 | 0.14 | 89 | 1010.4 |
| 20260509170924 | 53 | 169 | 0.0 | 0.0 | 0.00 | 0.39 | 0.08 | 88 | 1010.4 |
| 20260509170007 | 53 | 169 | 0.0 | 0.0 | 0.00 | 0.39 | 0.08 | 89 | 1010.3 |
| 20260509164914 | 53 | 169 | 0.0 | 0.0 | 0.00 | 0.39 | 0.08 | 88 | 1010.5 |
| 20260509163924 | 53 | 169 | 0.0 | 0.0 | 0.16 | 0.39 | 0.08 | 87 | 1010.5 |
| 20260509162927 | 54 | 170 | 0.0 | 0.0 | 0.16 | 0.39 | 0.08 | 87 | 1010.7 |
| 20260509161916 | 54 | 170 | 0.0 | 3.0 | 0.16 | 0.39 | 0.08 | 87 | 1010.6 |
| 20260509160911 | 54 | 169 | 0.0 | 3.0 | 0.16 | 0.39 | 0.08 | 88 | 1010.6 |
| 20260509155912 | 54 | 169 | 1.0 | 7.0 | 0.16 | 0.71 | 0.08 | 86 | 1010.4 |
| 20260509154922 | 54 | 165 | 2.0 | 9.0 | 0.16 | 0.71 | 0.08 | 84 | 1010.5 |
| 20260509153929 | 55 | 166 | 2.0 | 8.0 | 0.00 | 0.55 | 0.05 | 81 | 1010.9 |
| 20260509152918 | 56 | 178 | 2.0 | 9.0 | 0.00 | 0.55 | 0.05 | 80 | 1010.6 |
| 20260509151928 | 57 | 121 | 0.0 | 4.0 | 0.00 | 0.55 | 0.05 | 79 | 1010.7 |
| 20260509150918 | 57 | 109 | 0.0 | 6.0 | 0.00 | 0.55 | 0.05 | 81 | 1010.6 |
| 20260509145922 | 56 | 161 | 1.0 | 7.0 | 0.00 | 0.55 | 0.05 | 81 | 1010.7 |
| 20260509144934 | 56 | 170 | 1.0 | 6.0 | 0.00 | 0.55 | 0.05 | 83 | 1010.9 |
| 20260509143944 | 56 | 169 | 0.0 | 6.0 | 0.00 | 0.55 | 0.05 | 85 | 1010.9 |
| 20260509142948 | 55 | 158 | 0.0 | 7.0 | 0.00 | 0.55 | 0.05 | 88 | 1010.9 |
| 20260509141935 | 55 | 176 | 1.0 | 11.0 | 0.08 | 0.55 | 0.05 | 89 | 1010.9 |
| 20260509140945 | 54 | 175 | 2.0 | 9.0 | 0.16 | 0.55 | 0.05 | 90 | 1011.0 |
| 20260509135951 | 53 | 161 | 3.0 | 9.0 | 0.16 | 0.55 | 0.05 | 90 | 1011.4 |
| 20260509134940 | 53 | 171 | 4.0 | 10.0 | 0.24 | 0.55 | 0.05 | 90 | 1011.2 |
| 20260509133949 | 52 | 219 | 1.0 | 7.0 | 0.24 | 0.55 | 0.05 | 90 | 1011.4 |
| 20260509132950 | 51 | 190 | 1.0 | 8.0 | 0.24 | 0.55 | 0.05 | 89 | 1011.5 |
| 20260509130937 | 51 | 257 | 1.0 | 6.0 | 0.08 | 0.39 | 0.02 | 87 | 1011.3 |
| 20260509125940 | 51 | 257 | 0.0 | 12.0 | 0.08 | 0.39 | 0.02 | 87 | 1011.3 |
| 20260509124949 | 52 | 256 | 2.0 | 10.0 | 0.00 | 0.31 | 0.00 | 86 | 1011.4 |
| 20260509123939 | 52 | 265 | 3.0 | 12.0 | 0.00 | 0.31 | 0.00 | 85 | 1011.3 |
| 20260509122942 | 53 | 258 | 4.0 | 10.0 | 0.00 | 0.31 | 0.00 | 84 | 1011.3 |
| 20260509121934 | 54 | 252 | 2.0 | 8.0 | 0.00 | 0.31 | 0.00 | 84 | 1011.2 |
| 20260509120943 | 55 | 262 | 4.0 | 8.0 | 0.00 | 0.31 | 0.00 | 82 | 1011.1 |
| 20260509115946 | 55 | 248 | 3.0 | 9.0 | 0.00 | 0.71 | 0.00 | 81 | 1011.1 |
| 20260509114934 | 55 | 196 | 2.0 | 12.0 | 0.00 | 0.71 | 0.00 | 82 | 1011.0 |
| 20260509113943 | 55 | 196 | 3.0 | 17.0 | 0.00 | 0.71 | 0.00 | 82 | 1011.3 |
| 20260509112946 | 55 | 177 | 6.0 | 15.0 | 0.00 | 0.71 | 0.00 | 80 | 1011.1 |
| 20260509111939 | 55 | 196 | 4.0 | 13.0 | 0.00 | 0.71 | 0.00 | 81 | 1011.0 |
| 20260509110948 | 56 | 166 | 5.0 | 12.0 | 0.00 | 0.71 | 0.00 | 80 | 1010.9 |
| 20260509105949 | 55 | 168 | 5.0 | 11.0 | 0.00 | 1.22 | 0.00 | 83 | 1010.8 |
| 20260509104938 | 54 | 185 | 2.0 | 9.0 | 0.00 | 1.22 | 0.00 | 86 | 1011.0 |
| 20260509103947 | 53 | 181 | 1.0 | 12.0 | 0.00 | 1.22 | 0.00 | 87 | 1011.2 |
| 20260509102946 | 52 | 159 | 1.0 | 5.0 | 0.00 | 1.22 | 0.00 | 90 | 1011.0 |
| 20260509101938 | 51 | 172 | 0.0 | 7.0 | 0.00 | 1.22 | 0.00 | 89 | 1011.1 |
| 20260509100947 | 51 | 171 | 0.0 | 6.0 | 0.00 | 1.22 | 0.00 | 90 | 1011.1 |
| 20260509095950 | 51 | 181 | 2.0 | 9.0 | 0.00 | 1.22 | 0.00 | 89 | 1011.1 |
| 20260509094938 | 51 | 171 | 0.0 | 8.0 | 0.00 | 1.22 | 0.00 | 89 | 1011.0 |
| 20260509093947 | 52 | 173 | 1.0 | 7.0 | 0.00 | 1.22 | 0.00 | 89 | 1010.9 |
| 20260509092935 | 52 | 171 | 1.0 | 11.0 | 0.00 | 1.22 | 0.00 | 88 | 1011.1 |
| 20260509091943 | 52 | 159 | 4.0 | 11.0 | 0.00 | 1.22 | 0.00 | 89 | 1011.0 |
| 20260509090934 | 52 | 135 | 4.0 | 15.0 | 0.00 | 1.22 | 0.00 | 89 | 1011.0 |
| 20260509085938 | 52 | 172 | 5.0 | 13.0 | 0.00 | 1.22 | 0.00 | 90 | 1010.8 |
| 20260509084946 | 52 | 177 | 3.0 | 11.0 | 0.00 | 1.22 | 0.00 | 92 | 1010.9 |
| 20260509083005 | 50 | 184 | 2.0 | 11.0 | 0.00 | 1.22 | 0.00 | 92 | 1011.0 |
| 20260509081929 | 50 | 190 | 1.0 | 9.0 | 0.00 | 1.22 | 0.00 | 93 | 1011.0 |
| 20260509080916 | 50 | 175 | 1.0 | 8.0 | 0.00 | 1.22 | 0.00 | 93 | 1010.9 |
| 20260509075921 | 50 | 161 | 1.0 | 9.0 | 0.00 | 1.26 | 0.00 | 92 | 1011.0 |
| 20260509074912 | 50 | 204 | 0.0 | 4.0 | 0.00 | 1.26 | 0.00 | 93 | 1011.0 |
| 20260509073924 | 50 | 204 | 0.0 | 6.0 | 0.00 | 1.26 | 0.00 | 93 | 1010.7 |
| 20260509072925 | 49 | 207 | 1.0 | 5.0 | 0.00 | 1.26 | 0.00 | 93 | 1010.7 |
| 20260509071919 | 49 | 207 | 0.0 | 4.0 | 0.00 | 1.26 | 0.00 | 93 | 1011.1 |
| 20260509070929 | 49 | 208 | 0.0 | 5.0 | 0.00 | 1.26 | 0.00 | 93 | 1011.2 |
| 20260509065929 | 49 | 209 | 0.0 | 4.0 | 0.00 | 1.26 | 0.00 | 93 | 1011.5 |
| 20260509064919 | 49 | 210 | 0.0 | 0.0 | 0.00 | 1.26 | 0.00 | 93 | 1011.4 |
| 20260509063914 | 49 | 213 | 0.0 | 3.0 | 0.00 | 1.26 | 0.00 | 93 | 1011.2 |
| 20260509062917 | 49 | 213 | 0.0 | 0.0 | 0.00 | 1.26 | 0.00 | 93 | 1011.0 |
| 20260509061927 | 49 | 213 | 0.0 | 0.0 | 0.00 | 1.26 | 0.00 | 93 | 1011.0 |
| 20260509060917 | 49 | 213 | 0.0 | 0.0 | 0.00 | 1.26 | 0.00 | 93 | 1011.0 |
| 20260509055925 | 49 | 213 | 0.0 | 4.0 | 0.00 | 1.26 | 0.00 | 93 | 1011.0 |
| 20260509054915 | 49 | 213 | 0.0 | 2.0 | 0.00 | 1.26 | 0.00 | 93 | 1011.1 |
| 20260509053926 | 49 | 213 | 1.0 | 5.0 | 0.00 | 1.26 | 0.00 | 93 | 1010.9 |
| 20260509052929 | 49 | 215 | 1.0 | 5.0 | 0.00 | 1.26 | 0.00 | 93 | 1010.7 |